STARLINK-35060, 65693

Orbit data source: Space-Track

STARLINK-35060, 65693 is a payload satellite owned by SpaceX/Seattle (US) in LEO that was launched on Sun, 21 Sep 2025 UTC via an FALCON 9 launch vehicle from the Air Force Eastern Test Range (AFETR). Payload-class satellites include a variety of spacecraft equipped with specific instruments for various scientific and technological missions. These include communications satellites like Starlink; space stations such as the ISS; scientific satellites like the Hubble; Earth observation satellites from companies like Planet Labs, Umbra, and HawkEye 360; GPS; miniature CubeSats for education and research; and military/defense satellites.

Loading next visibility...
Identifier
65693, 2025-212T
Orbit
LEO
Country
Flag of USUS
Related business
Manufacturer
SpaceX/Seattle
Mission
Operational Commercial Communications
Bus & Motor
STARLINK V2MO, Unknown motor
Mass
575 kg wet, ~530 kg dry
Launch date (UTC)
2025-09-21 (9 months ago)
Launch vehicle
FALCON 9
Launch site
Air Force Eastern Test Range (AFETR)
Object type
Payload
Rocket body
Debris
Shape & HBR
Box + 2 Pan, 17.7 m
Radar Cross Section
36.964 m², Large (>1 m²)

Expand to show TLE details & history
Last TLE update: 11 hours ago

TLE from 11 hours ago
0 STARLINK-35060
1 65693U 25212T   26171.40588439  .00016639  00000-0  57257-3 0  9993
2 65693  53.1574 218.3083 0001086  82.2305 277.8819 15.30204257 43116
Epoch: 2026-06-20T09:44Z
TLE epoch observation values (Epoch: 2026-06-20T09:44:28.411Z)
Latitude
-0.00001°
Longitude
163.56894°
Altitude
476 km
Speed
7.629 km/s
True Right ascension
14h 33m 13s
True Declination
0° 00' 00"
Sunlit
Object was in full shadow at epoch
Visualization orbit readout
Latitude
Unknown
Longitude
Unknown
Altitude
Unknown
Speed
Unknown
Apparent Right ascension
Unknown
Apparent Declination
Unknown
Sunlit
N/A
Visualization observer readout
Local Sidereal Time
07:12:30
Azimuth
Unknown
Elevation
Unknown
Doppler factor
Unknown
Orbital elements
Apogee altitude
476.204 km
Perigee altitude
474.715 km
Semi-major axis
6,853.596 km
Eccentricity
0.00011
Inclination
53.1574°
RAAN
218.3083°
Arg. of periapsis
82.2305°
True anomaly
277.86957°
Mean anomaly
277.8819°
Eccentric anomaly
277.87574°
Mean motion
3.8253 °/min
Orbital period
94.11 mins
BSTAR
0.00057257
Loading maneuver chart data...
Computing Atmospheric mass density...
Loading historical data...
Loading historical data...
Loading historical data...
Loading historical data...
Loading historical data...
Loading historical data...
Loading historical data...

Documentation

Showing up to 5 results
|